Time,TemperatureF,DewpointF,PressureIn,WindDirection,WindDirectionDegrees,WindSpeedMPH,WindSpeedGustMPH,Humidity,HourlyPrecipIn,Conditions,Clouds,dailyrainin,SolarRadiationWatts/m^2,SoftwareType,DateUTC
2013-05-22 00:01:00,50.7,46.4,29.96,North,0,0.0,0.0,85,0.00,RA,,0.00,0.0,WeatherDisplay:10.37,2013-05-22 04:01:00,
2013-05-22 00:06:00,50.6,46.3,29.97,North,0,0.0,0.0,85,0.00,RA,,0.00,0.0,WeatherDisplay:10.37,2013-05-22 04:06:00,
2013-05-22 00:11:00,50.6,46.3,29.99,North,0,0.0,0.0,85,0.00,CLR,,0.00,0.0,WeatherDisplay:10.37,2013-05-22 04:11:00,
2013-05-22 00:16:00,50.6,46.3,30.00,North,0,0.0,0.0,85,0.00,CLR,,0.00,0.0,WeatherDisplay:10.37,2013-05-22 04:16:00,
2013-05-22 00:21:00,50.6,46.3,30.01,North,0,0.0,0.0,85,0.00,CLR,,0.00,0.0,WeatherDisplay:10.37,2013-05-22 04:21:00,
2013-05-22 00:26:00,50.6,46.3,30.00,North,0,0.0,0.0,85,0.00,CLR,,0.01,0.0,WeatherDisplay:10.37,2013-05-22 04:26:00,
2013-05-22 00:31:00,50.5,46.2,30.00,North,0,0.0,0.0,85,0.01,RA,,0.01,0.0,WeatherDisplay:10.37,2013-05-22 04:31:00,
2013-05-22 00:36:00,50.5,46.2,29.99,North,0,0.0,0.0,85,0.01,RA,,0.01,0.0,WeatherDisplay:10.37,2013-05-22 04:36:00,
2013-05-22 00:41:00,50.4,46.1,29.98,North,0,0.0,0.0,85,0.01,CLR,,0.01,0.0,WeatherDisplay:10.37,2013-05-22 04:41:00,
2013-05-22 00:46:00,50.4,46.1,29.97,North,0,0.0,0.0,85,0.01,CLR,,0.01,0.0,WeatherDisplay:10.37,2013-05-22 04:46:00,
2013-05-22 00:51:00,50.3,46.0,29.97,North,0,0.0,0.0,85,0.01,CLR,,0.01,0.0,WeatherDisplay:10.37,2013-05-22 04:51:00,
2013-05-22 00:56:00,50.2,46.2,29.97,North,0,0.0,0.0,86,0.01,CLR,,0.01,0.0,WeatherDisplay:10.37,2013-05-22 04:56:00,
2013-05-22 01:01:00,50.1,46.1,29.95,North,0,0.0,0.0,86,0.01,CLR,,0.01,0.0,WeatherDisplay:10.37,2013-05-22 05:01:00,
2013-05-22 01:06:00,50.0,45.7,29.95,North,0,0.0,0.0,85,0.01,CLR,,0.01,0.0,WeatherDisplay:10.37,2013-05-22 05:06:00,
2013-05-22 01:11:00,49.9,45.6,29.94,North,0,0.0,0.0,85,0.01,CLR,,0.01,0.0,WeatherDisplay:10.37,2013-05-22 05:11:00,
2013-05-22 01:16:00,49.8,45.5,29.92,North,0,0.0,0.0,85,0.01,CLR,,0.01,0.0,WeatherDisplay:10.37,2013-05-22 05:16:00,
2013-05-22 01:21:00,49.7,45.7,29.93,North,0,0.0,0.0,86,0.01,CLR,,0.01,0.0,WeatherDisplay:10.37,2013-05-22 05:21:00,
2013-05-22 01:26:00,49.7,45.7,29.92,North,0,0.0,0.0,86,0.01,CLR,,0.01,0.0,WeatherDisplay:10.37,2013-05-22 05:26:00,
2013-05-22 01:31:00,49.6,45.6,29.92,North,0,0.0,0.0,86,0.00,CLR,,0.01,0.0,WeatherDisplay:10.37,2013-05-22 05:31:00,
2013-05-22 01:36:00,49.6,45.6,29.91,North,0,0.0,0.0,86,0.00,CLR,,0.01,0.0,WeatherDisplay:10.37,2013-05-22 05:36:00,
2013-05-22 01:41:00,49.6,45.6,29.91,North,0,0.0,0.0,86,0.00,CLR,,0.01,0.0,WeatherDisplay:10.37,2013-05-22 05:41:00,
2013-05-22 01:46:00,49.6,45.6,29.91,North,0,0.0,0.0,86,0.00,CLR,,0.01,0.0,WeatherDisplay:10.37,2013-05-22 05:46:00,
2013-05-22 01:51:00,49.5,45.5,29.91,North,0,0.0,0.0,86,0.00,CLR,,0.01,0.0,WeatherDisplay:10.37,2013-05-22 05:51:00,
2013-05-22 01:56:00,49.5,45.5,29.91,North,0,0.0,0.0,86,0.00,CLR,,0.01,0.0,WeatherDisplay:10.37,2013-05-22 05:56:00,
2013-05-22 02:01:00,49.5,45.5,29.90,North,0,0.0,0.0,86,0.00,CLR,,0.01,0.0,WeatherDisplay:10.37,2013-05-22 06:01:00,
2013-05-22 02:06:00,49.4,45.4,29.90,North,0,0.0,0.0,86,0.00,CLR,,0.01,0.0,WeatherDisplay:10.37,2013-05-22 06:06:00,
2013-05-22 02:11:00,49.4,45.4,29.89,North,0,0.0,0.0,86,0.00,CLR,,0.01,0.0,WeatherDisplay:10.37,2013-05-22 06:11:00,
2013-05-22 02:16:00,49.4,45.4,29.89,North,0,0.0,0.0,86,0.00,CLR,,0.01,0.0,WeatherDisplay:10.37,2013-05-22 06:16:00,
2013-05-22 02:21:00,49.4,45.4,29.88,North,0,0.0,0.0,86,0.00,CLR,,0.01,0.0,WeatherDisplay:10.37,2013-05-22 06:21:00,
2013-05-22 02:26:00,49.4,45.4,29.88,North,0,0.0,0.0,86,0.00,CLR,,0.01,0.0,WeatherDisplay:10.37,2013-05-22 06:26:00,
2013-05-22 02:31:00,49.4,45.4,29.88,North,0,0.0,0.0,86,0.00,CLR,,0.01,0.0,WeatherDisplay:10.37,2013-05-22 06:31:00,
2013-05-22 02:36:00,49.3,45.3,29.89,North,0,0.0,0.0,86,0.00,CLR,,0.01,0.0,WeatherDisplay:10.37,2013-05-22 06:36:00,
2013-05-22 02:41:00,49.3,45.3,29.89,North,0,0.0,0.0,86,0.00,CLR,,0.01,0.0,WeatherDisplay:10.37,2013-05-22 06:41:00,
2013-05-22 02:46:00,49.3,45.3,29.90,North,0,0.0,0.0,86,0.00,CLR,,0.01,0.0,WeatherDisplay:10.37,2013-05-22 06:46:00,
2013-05-22 02:51:00,49.3,45.3,29.90,North,0,0.0,0.0,86,0.00,CLR,,0.01,0.0,WeatherDisplay:10.37,2013-05-22 06:51:00,
2013-05-22 02:56:00,49.3,45.3,29.90,North,0,0.0,0.0,86,0.00,CLR,,0.01,0.0,WeatherDisplay:10.37,2013-05-22 06:56:00,
2013-05-22 03:01:00,49.3,45.3,29.90,North,0,0.0,0.0,86,0.00,CLR,,0.01,0.0,WeatherDisplay:10.37,2013-05-22 07:01:00,
2013-05-22 03:06:00,49.3,45.3,29.90,North,0,0.0,0.0,86,0.00,CLR,,0.01,0.0,WeatherDisplay:10.37,2013-05-22 07:06:00,
2013-05-22 03:11:00,49.3,45.3,29.90,North,0,0.0,0.0,86,0.00,CLR,,0.01,0.0,WeatherDisplay:10.37,2013-05-22 07:11:00,
2013-05-22 03:16:00,49.4,45.4,29.91,North,0,0.0,0.0,86,0.00,CLR,,0.01,0.0,WeatherDisplay:10.37,2013-05-22 07:16:00,
2013-05-22 03:21:00,49.4,45.4,29.92,North,0,0.0,0.0,86,0.00,CLR,,0.01,0.0,WeatherDisplay:10.37,2013-05-22 07:21:00,
2013-05-22 03:26:00,49.5,45.5,29.92,North,0,0.0,0.0,86,0.00,CLR,,0.01,0.0,WeatherDisplay:10.37,2013-05-22 07:26:00,
2013-05-22 03:31:00,49.5,45.5,29.93,North,0,0.0,0.0,86,0.00,CLR,,0.01,0.0,WeatherDisplay:10.37,2013-05-22 07:31:00,
2013-05-22 03:36:00,49.7,45.7,29.97,North,0,0.0,0.0,86,0.00,CLR,,0.01,0.0,WeatherDisplay:10.37,2013-05-22 07:36:00,
2013-05-22 03:41:00,49.7,45.7,29.96,North,0,0.0,0.0,86,0.00,CLR,,0.01,0.0,WeatherDisplay:10.37,2013-05-22 07:41:00,
2013-05-22 03:46:00,49.8,45.8,29.96,North,0,0.0,0.0,86,0.00,CLR,,0.01,0.0,WeatherDisplay:10.37,2013-05-22 07:46:00,
2013-05-22 03:51:00,49.8,45.8,29.96,North,0,0.0,0.0,86,0.00,CLR,,0.01,0.0,WeatherDisplay:10.37,2013-05-22 07:51:00,
2013-05-22 03:56:00,49.8,45.8,29.95,North,0,0.0,0.0,86,0.00,CLR,,0.01,0.0,WeatherDisplay:10.37,2013-05-22 07:56:00,
2013-05-22 04:01:00,49.8,45.8,29.96,North,0,0.0,0.0,86,0.01,RA,,0.02,0.0,WeatherDisplay:10.37,2013-05-22 08:01:00,
2013-05-22 04:06:00,49.8,45.8,29.93,North,0,0.0,0.0,86,0.01,RA,,0.02,0.0,WeatherDisplay:10.37,2013-05-22 08:06:00,
2013-05-22 04:11:00,49.8,45.8,29.92,North,0,0.0,0.0,86,0.01,,,0.02,0.0,WeatherDisplay:10.37,2013-05-22 08:11:00,
2013-05-22 04:16:00,49.8,45.8,29.91,North,0,0.0,0.0,86,0.01,CLR,,0.02,0.0,WeatherDisplay:10.37,2013-05-22 08:16:00,
2013-05-22 04:21:00,49.9,45.9,29.92,North,0,0.0,0.0,86,0.01,CLR,,0.02,0.0,WeatherDisplay:10.37,2013-05-22 08:21:00,
2013-05-22 04:26:00,49.8,46.1,29.90,North,0,0.0,0.0,87,0.01,CLR,,0.02,0.0,WeatherDisplay:10.37,2013-05-22 08:26:00,
2013-05-22 04:31:00,49.9,46.2,29.90,North,0,0.0,0.0,87,0.01,CLR,,0.02,0.0,WeatherDisplay:10.37,2013-05-22 08:31:00,
2013-05-22 04:36:00,49.9,46.2,29.90,North,0,0.0,0.0,87,0.01,CLR,,0.02,0.0,WeatherDisplay:10.37,2013-05-22 08:36:00,
2013-05-22 04:41:00,49.8,46.1,29.89,North,0,0.0,0.0,87,0.01,CLR,,0.02,0.0,WeatherDisplay:10.37,2013-05-22 08:41:00,
2013-05-22 04:46:00,49.8,46.1,29.89,North,0,0.0,0.0,87,0.01,CLR,,0.02,0.0,WeatherDisplay:10.37,2013-05-22 08:46:00,
2013-05-22 04:51:00,49.8,45.8,29.89,North,0,0.0,0.0,86,0.01,CLR,,0.02,0.0,WeatherDisplay:10.37,2013-05-22 08:51:00,
2013-05-22 04:56:00,49.7,45.7,29.89,North,0,0.0,0.0,86,0.01,CLR,,0.02,0.0,WeatherDisplay:10.37,2013-05-22 08:56:00,
2013-05-22 05:01:00,49.7,45.7,29.89,North,0,0.0,0.0,86,0.00,OVC,,0.02,0.0,WeatherDisplay:10.37,2013-05-22 09:01:00,
2013-05-22 05:06:00,49.7,45.7,29.89,North,0,0.0,0.0,86,0.00,OVC,,0.02,0.0,WeatherDisplay:10.37,2013-05-22 09:06:00,
2013-05-22 05:11:00,49.7,45.7,29.89,North,0,0.0,0.0,86,0.00,OVC,,0.02,0.0,WeatherDisplay:10.37,2013-05-22 09:11:00,
2013-05-22 05:16:00,49.7,46.0,29.89,North,0,0.0,0.0,87,0.00,OVC,,0.02,0.0,WeatherDisplay:10.37,2013-05-22 09:16:00,
2013-05-22 05:21:00,49.7,46.0,29.89,North,0,0.0,0.0,87,0.00,OVC,,0.02,0.0,WeatherDisplay:10.37,2013-05-22 09:21:00,
2013-05-22 05:26:00,49.7,46.0,29.89,North,0,0.0,0.0,87,0.00,OVC,,0.02,0.0,WeatherDisplay:10.37,2013-05-22 09:26:00,
2013-05-22 05:31:00,49.7,46.0,29.89,North,0,0.0,0.0,87,0.00,OVC,,0.02,0.0,WeatherDisplay:10.37,2013-05-22 09:31:00,
2013-05-22 05:36:00,49.7,46.0,29.89,North,0,0.0,0.0,87,0.00,OVC,,0.02,0.0,WeatherDisplay:10.37,2013-05-22 09:36:00,
2013-05-22 05:41:00,49.8,47.0,29.89,North,0,0.0,0.0,90,0.00,OVC,,0.02,0.0,WeatherDisplay:10.37,2013-05-22 09:41:00,
2013-05-22 05:46:00,49.8,46.1,29.89,North,0,0.0,0.0,87,0.00,OVC,,0.02,0.0,WeatherDisplay:10.37,2013-05-22 09:46:00,
2013-05-22 05:51:00,49.9,46.2,29.88,North,0,0.0,0.0,87,0.01,RA,,0.03,0.0,WeatherDisplay:10.37,2013-05-22 09:51:00,
2013-05-22 05:56:00,49.9,46.2,29.88,North,0,0.0,0.0,87,0.02,RA,,0.04,7.0,WeatherDisplay:10.37,2013-05-22 09:56:00,
2013-05-22 06:01:00,49.9,46.2,29.88,North,0,0.0,0.0,87,0.03,RA,,0.05,9.0,WeatherDisplay:10.37,2013-05-22 10:01:00,
2013-05-22 06:06:00,49.9,46.2,29.88,North,0,0.0,0.0,87,0.03,RA,,0.05,16.0,WeatherDisplay:10.37,2013-05-22 10:06:00,
2013-05-22 06:11:00,49.9,46.2,29.88,North,0,0.0,0.0,87,0.03,BKN,,0.05,21.0,WeatherDisplay:10.37,2013-05-22 10:11:00,
2013-05-22 06:16:00,50.0,46.3,29.88,North,0,0.0,0.0,87,0.03,BKN,,0.05,32.0,WeatherDisplay:10.37,2013-05-22 10:16:00,
2013-05-22 06:21:00,50.0,46.3,29.88,North,0,0.0,0.0,87,0.03,BKN,,0.05,28.0,WeatherDisplay:10.37,2013-05-22 10:21:00,
2013-05-22 06:26:00,50.1,46.4,29.88,North,0,0.0,0.0,87,0.03,BKN,,0.05,19.0,WeatherDisplay:10.37,2013-05-22 10:26:00,
2013-05-22 06:31:00,50.2,46.5,29.88,North,0,0.0,0.0,87,0.03,BKN,,0.05,16.0,WeatherDisplay:10.37,2013-05-22 10:31:00,
2013-05-22 06:36:00,50.2,46.5,29.88,North,0,0.0,0.0,87,0.03,BKN,,0.05,16.0,WeatherDisplay:10.37,2013-05-22 10:36:00,
2013-05-22 06:41:00,50.2,46.5,29.89,North,0,0.0,0.0,87,0.03,BKN,,0.05,12.0,WeatherDisplay:10.37,2013-05-22 10:41:00,
2013-05-22 06:46:00,50.2,46.5,29.89,North,0,0.0,0.0,87,0.04,RA,,0.06,11.0,WeatherDisplay:10.37,2013-05-22 10:46:00,
2013-05-22 06:51:00,50.2,46.5,29.89,North,0,0.0,0.0,87,0.04,RA,,0.07,12.0,WeatherDisplay:10.37,2013-05-22 10:51:00,
2013-05-22 06:56:00,50.3,46.6,29.89,North,0,0.0,0.0,87,0.04,RA,,0.08,19.0,WeatherDisplay:10.37,2013-05-22 10:56:00,
2013-05-22 07:01:00,50.3,46.6,29.88,North,0,0.0,0.0,87,0.04,RA,,0.09,23.0,WeatherDisplay:10.37,2013-05-22 11:01:00,
2013-05-22 07:06:00,50.4,46.7,29.87,North,0,0.0,0.0,87,0.05,RA,,0.10,28.0,WeatherDisplay:10.37,2013-05-22 11:06:00,
2013-05-22 07:11:00,50.4,46.7,29.87,North,0,0.0,0.0,87,0.05,RA,,0.10,37.0,WeatherDisplay:10.37,2013-05-22 11:11:00,
2013-05-22 07:16:00,50.5,46.8,29.86,North,0,0.0,0.0,87,0.05,BKN,,0.11,37.0,WeatherDisplay:10.37,2013-05-22 11:16:00,
2013-05-22 07:21:00,50.6,46.9,29.86,North,0,0.0,0.0,87,0.06,RA,,0.11,63.0,WeatherDisplay:10.37,2013-05-22 11:21:00,
2013-05-22 07:26:00,50.6,46.9,29.86,North,0,0.0,0.0,87,0.06,RA,,0.11,90.0,WeatherDisplay:10.37,2013-05-22 11:26:00,
2013-05-22 07:31:00,50.8,47.1,29.86,North,0,0.0,0.0,87,0.06,BKN,,0.11,86.0,WeatherDisplay:10.37,2013-05-22 11:31:00,
2013-05-22 07:36:00,50.9,47.2,29.86,North,0,0.0,0.0,87,0.06,BKN,,0.11,97.0,WeatherDisplay:10.37,2013-05-22 11:36:00,
2013-05-22 07:41:00,51.2,47.5,29.86,North,0,0.0,0.0,87,0.06,BKN,,0.11,102.0,WeatherDisplay:10.37,2013-05-22 11:41:00,
2013-05-22 07:46:00,51.5,47.8,29.85,North,0,0.0,0.0,87,0.05,BKN,,0.11,104.0,WeatherDisplay:10.37,2013-05-22 11:46:00,
2013-05-22 07:51:00,51.7,48.0,29.86,North,0,0.0,0.0,87,0.04,BKN,,0.11,148.0,WeatherDisplay:10.37,2013-05-22 11:51:00,
2013-05-22 07:56:00,52.1,48.3,29.85,North,0,0.0,0.0,87,0.03,BKN,,0.11,146.0,WeatherDisplay:10.37,2013-05-22 11:56:00,
2013-05-22 08:01:00,52.5,48.7,29.85,North,0,0.0,0.0,87,0.02,BKN,,0.11,125.0,WeatherDisplay:10.37,2013-05-22 12:01:00,
2013-05-22 08:06:00,52.8,49.0,29.84,North,0,0.0,0.0,87,0.01,BKN,,0.11,130.0,WeatherDisplay:10.37,2013-05-22 12:06:00,
2013-05-22 08:11:00,53.1,49.6,29.86,North,0,0.0,0.0,88,0.01,BKN,,0.11,160.0,WeatherDisplay:10.37,2013-05-22 12:11:00,
2013-05-22 08:16:00,53.2,49.7,29.87,North,0,0.0,0.0,88,0.01,BKN,,0.11,121.0,WeatherDisplay:10.37,2013-05-22 12:16:00,
2013-05-22 08:21:00,53.4,49.6,29.88,North,0,0.0,0.0,87,0.00,BKN,,0.11,123.0,WeatherDisplay:10.37,2013-05-22 12:21:00,
2013-05-22 08:26:00,53.7,49.9,29.87,North,0,0.0,0.0,87,0.00,BKN,,0.11,135.0,WeatherDisplay:10.37,2013-05-22 12:26:00,
2013-05-22 08:31:00,53.8,50.3,29.87,North,0,0.0,0.0,88,0.00,BKN,,0.11,158.0,WeatherDisplay:10.37,2013-05-22 12:31:00,
2013-05-22 08:36:00,54.0,50.5,29.87,North,0,0.0,0.0,88,0.00,BKN,,0.11,200.0,WeatherDisplay:10.37,2013-05-22 12:36:00,
2013-05-22 08:41:00,54.3,50.5,29.87,North,0,0.0,0.0,87,0.00,BKN,,0.11,271.0,WeatherDisplay:10.37,2013-05-22 12:41:00,
2013-05-22 08:46:00,54.6,51.1,29.88,North,0,0.0,0.0,88,0.00,BKN,,0.11,127.0,WeatherDisplay:10.37,2013-05-22 12:46:00,
2013-05-22 08:51:00,54.8,51.3,29.88,North,0,0.0,0.0,88,0.00,BKN,,0.11,84.0,WeatherDisplay:10.37,2013-05-22 12:51:00,
2013-05-22 08:56:00,55.0,51.2,29.88,North,0,0.0,0.0,87,0.00,BKN,,0.11,86.0,WeatherDisplay:10.37,2013-05-22 12:56:00,
2013-05-22 09:01:00,55.1,51.3,29.89,North,0,0.0,0.0,87,0.00,BKN,,0.11,156.0,WeatherDisplay:10.37,2013-05-22 13:01:00,
2013-05-22 09:06:00,55.2,51.7,29.89,North,0,0.0,0.0,88,0.00,BKN,,0.11,162.0,WeatherDisplay:10.37,2013-05-22 13:06:00,
2013-05-22 09:11:00,55.3,51.8,29.89,North,0,0.0,0.0,88,0.00,BKN,,0.11,176.0,WeatherDisplay:10.37,2013-05-22 13:11:00,
2013-05-22 09:16:00,55.5,52.0,29.89,North,0,0.0,0.0,88,0.00,BKN,,0.11,174.0,WeatherDisplay:10.37,2013-05-22 13:16:00,
2013-05-22 09:21:00,55.7,52.2,29.89,North,0,0.0,0.0,88,0.00,BKN,,0.11,192.0,WeatherDisplay:10.37,2013-05-22 13:21:00,
2013-05-22 09:26:00,55.8,52.3,29.89,North,0,0.0,0.0,88,0.00,BKN,,0.11,181.0,WeatherDisplay:10.37,2013-05-22 13:26:00,
2013-05-22 09:31:00,56.0,52.5,29.89,North,0,0.0,0.0,88,0.00,BKN,,0.11,169.0,WeatherDisplay:10.37,2013-05-22 13:31:00,
2013-05-22 09:36:00,56.0,52.5,29.89,North,0,0.0,0.0,88,0.00,BKN,,0.11,174.0,WeatherDisplay:10.37,2013-05-22 13:36:00,
2013-05-22 09:41:00,56.1,52.6,29.89,North,0,0.0,0.0,88,0.00,BKN,,0.11,200.0,WeatherDisplay:10.37,2013-05-22 13:41:00,
2013-05-22 09:46:00,56.3,52.8,29.88,North,0,0.0,0.0,88,0.00,BKN,,0.11,200.0,WeatherDisplay:10.37,2013-05-22 13:46:00,
2013-05-22 09:51:00,56.4,52.9,29.88,North,0,0.0,0.0,88,0.00,BKN,,0.11,169.0,WeatherDisplay:10.37,2013-05-22 13:51:00,
2013-05-22 09:56:00,56.5,52.7,29.89,North,0,0.0,0.0,87,0.00,BKN,,0.11,111.0,WeatherDisplay:10.37,2013-05-22 13:56:00,
2013-05-22 10:01:00,56.7,53.2,29.89,North,0,0.0,0.0,88,0.00,BKN,,0.11,156.0,WeatherDisplay:10.37,2013-05-22 14:01:00,
2013-05-22 10:06:00,56.9,53.4,29.89,North,0,0.0,0.0,88,0.00,BKN,,0.11,142.0,WeatherDisplay:10.37,2013-05-22 14:06:00,
2013-05-22 10:11:00,57.0,53.2,29.89,North,0,0.0,0.0,87,0.00,BKN,,0.11,146.0,WeatherDisplay:10.37,2013-05-22 14:11:00,
2013-05-22 10:16:00,57.2,53.4,29.89,North,0,0.0,0.0,87,0.00,BKN,,0.11,158.0,WeatherDisplay:10.37,2013-05-22 14:16:00,
2013-05-22 10:21:00,57.5,54.0,29.89,North,0,0.0,0.0,88,0.00,BKN,,0.11,156.0,WeatherDisplay:10.37,2013-05-22 14:21:00,
2013-05-22 10:26:00,57.7,54.2,29.89,North,0,0.0,0.0,88,0.00,BKN,,0.11,125.0,WeatherDisplay:10.37,2013-05-22 14:26:00,
2013-05-22 10:31:00,57.7,54.2,29.89,North,0,0.0,0.0,88,0.00,BKN,,0.11,192.0,WeatherDisplay:10.37,2013-05-22 14:31:00,
2013-05-22 10:36:00,58.0,54.5,29.89,North,0,0.0,0.0,88,0.00,BKN,,0.11,176.0,WeatherDisplay:10.37,2013-05-22 14:36:00,
2013-05-22 10:41:00,58.3,54.8,29.89,North,0,0.0,0.0,88,0.00,BKN,,0.11,171.0,WeatherDisplay:10.37,2013-05-22 14:41:00,
2013-05-22 10:46:00,58.4,54.5,29.89,North,0,0.0,0.0,87,0.00,BKN,,0.11,174.0,WeatherDisplay:10.37,2013-05-22 14:46:00,
2013-05-22 10:51:00,58.7,54.8,29.89,North,0,0.0,0.0,87,0.00,BKN,,0.11,172.0,WeatherDisplay:10.37,2013-05-22 14:51:00,
2013-05-22 10:56:00,58.8,55.3,29.90,North,0,0.0,0.0,88,0.00,BKN,,0.11,179.0,WeatherDisplay:10.37,2013-05-22 14:56:00,
2013-05-22 11:01:00,59.1,55.2,29.89,North,0,0.0,0.0,87,0.00,BKN,,0.11,178.0,WeatherDisplay:10.37,2013-05-22 15:01:00,
2013-05-22 11:06:00,59.3,55.4,29.89,North,0,0.0,0.0,87,0.00,BKN,,0.11,202.0,WeatherDisplay:10.37,2013-05-22 15:06:00,
2013-05-22 11:11:00,59.5,55.9,29.89,North,0,0.0,0.0,88,0.00,BKN,,0.11,207.0,WeatherDisplay:10.37,2013-05-22 15:11:00,
2013-05-22 11:16:00,59.6,56.0,29.89,North,0,0.0,0.0,88,0.00,BKN,,0.11,258.0,WeatherDisplay:10.37,2013-05-22 15:16:00,
2013-05-22 11:21:00,59.9,56.0,29.90,North,0,0.0,0.0,87,0.00,BKN,,0.11,260.0,WeatherDisplay:10.37,2013-05-22 15:21:00,
2013-05-22 11:26:00,60.2,56.6,29.89,North,0,0.0,0.0,88,0.00,BKN,,0.11,248.0,WeatherDisplay:10.37,2013-05-22 15:26:00,
2013-05-22 11:31:00,60.3,56.4,29.89,North,0,0.0,0.0,87,0.00,BKN,,0.11,285.0,WeatherDisplay:10.37,2013-05-22 15:31:00,
2013-05-22 11:36:00,60.5,56.6,29.90,North,0,0.0,0.0,87,0.00,BKN,,0.11,278.0,WeatherDisplay:10.37,2013-05-22 15:36:00,
2013-05-22 11:41:00,60.8,56.9,29.89,North,0,0.0,0.0,87,0.00,BKN,,0.11,253.0,WeatherDisplay:10.37,2013-05-22 15:41:00,
2013-05-22 11:46:00,61.0,57.1,29.90,North,0,0.0,0.0,87,0.00,BKN,,0.11,357.0,WeatherDisplay:10.37,2013-05-22 15:46:00,
2013-05-22 11:51:00,61.4,57.5,29.89,North,0,0.0,0.0,87,0.00,BKN,,0.11,287.0,WeatherDisplay:10.37,2013-05-22 15:51:00,
2013-05-22 11:56:00,61.7,57.8,29.90,North,0,0.0,0.0,87,0.00,BKN,,0.11,311.0,WeatherDisplay:10.37,2013-05-22 15:56:00,
2013-05-22 12:01:00,62.1,58.2,29.90,North,0,0.0,0.0,87,0.00,BKN,,0.11,396.0,WeatherDisplay:10.37,2013-05-22 16:01:00,
2013-05-22 12:06:00,62.3,58.4,29.89,North,0,0.0,0.0,87,0.00,BKN,,0.11,243.0,WeatherDisplay:10.37,2013-05-22 16:06:00,
2013-05-22 12:11:00,62.7,58.8,29.89,North,0,0.0,0.0,87,0.00,BKN,,0.11,281.0,WeatherDisplay:10.37,2013-05-22 16:11:00,
2013-05-22 12:16:00,63.0,58.7,29.89,North,0,0.0,0.0,86,0.00,BKN,,0.11,302.0,WeatherDisplay:10.37,2013-05-22 16:16:00,
2013-05-22 12:21:00,63.2,58.9,29.89,North,0,0.0,0.0,86,0.00,BKN,,0.11,339.0,WeatherDisplay:10.37,2013-05-22 16:21:00,
2013-05-22 12:26:00,63.7,59.4,29.89,North,0,0.0,0.0,86,0.00,BKN,,0.11,366.0,WeatherDisplay:10.37,2013-05-22 16:26:00,
2013-05-22 12:31:00,64.2,59.6,29.89,North,0,0.0,0.0,85,0.00,BKN,,0.11,313.0,WeatherDisplay:10.37,2013-05-22 16:31:00,
2013-05-22 12:36:00,64.5,59.9,29.89,North,0,0.0,0.0,85,0.00,BKN,,0.11,327.0,WeatherDisplay:10.37,2013-05-22 16:36:00,
2013-05-22 12:41:00,64.7,59.8,29.88,North,0,0.0,0.0,84,0.00,BKN,,0.11,355.0,WeatherDisplay:10.37,2013-05-22 16:41:00,
2013-05-22 12:46:00,65.0,60.0,29.89,North,0,0.0,0.0,84,0.00,BKN,,0.11,420.0,WeatherDisplay:10.37,2013-05-22 16:46:00,
2013-05-22 12:51:00,65.4,60.1,29.88,North,0,0.0,0.0,83,0.00,BKN,,0.11,302.0,WeatherDisplay:10.37,2013-05-22 16:51:00,
2013-05-22 12:56:00,65.7,60.4,29.89,North,0,0.0,0.0,83,0.00,BKN,,0.11,329.0,WeatherDisplay:10.37,2013-05-22 16:56:00,
2013-05-22 13:01:00,66.1,60.4,29.89,North,0,0.0,0.0,82,0.00,BKN,,0.11,313.0,WeatherDisplay:10.37,2013-05-22 17:01:00,
2013-05-22 13:06:00,66.4,60.7,29.89,North,0,0.0,0.0,82,0.00,BKN,,0.11,302.0,WeatherDisplay:10.37,2013-05-22 17:06:00,
2013-05-22 13:11:00,66.8,60.8,29.89,North,0,0.0,0.0,81,0.00,BKN,,0.11,322.0,WeatherDisplay:10.37,2013-05-22 17:11:00,
2013-05-22 13:16:00,67.0,61.0,29.88,North,0,0.0,0.0,81,0.00,BKN,,0.11,394.0,WeatherDisplay:10.37,2013-05-22 17:16:00,
2013-05-22 13:21:00,67.3,60.9,29.88,North,0,0.0,0.0,80,0.00,BKN,,0.11,373.0,WeatherDisplay:10.37,2013-05-22 17:21:00,
2013-05-22 13:26:00,67.5,61.1,29.88,North,0,0.0,0.0,80,0.00,BKN,,0.11,292.0,WeatherDisplay:10.37,2013-05-22 17:26:00,
2013-05-22 13:31:00,68.4,62.0,29.88,North,0,0.0,0.0,80,0.00,BKN,,0.11,295.0,WeatherDisplay:10.37,2013-05-22 17:31:00,
2013-05-22 13:36:00,68.9,62.5,29.88,North,0,0.0,0.0,80,0.00,BKN,,0.11,366.0,WeatherDisplay:10.37,2013-05-22 17:36:00,
2013-05-22 13:41:00,68.9,62.1,29.88,North,0,0.0,0.0,79,0.00,BKN,,0.11,376.0,WeatherDisplay:10.37,2013-05-22 17:41:00,
2013-05-22 13:46:00,69.1,62.3,29.87,North,0,0.0,0.0,79,0.00,BKN,,0.11,554.0,WeatherDisplay:10.37,2013-05-22 17:46:00,
2013-05-22 13:51:00,69.7,62.9,29.87,North,0,0.0,0.0,79,0.00,BKN,,0.11,436.0,WeatherDisplay:10.37,2013-05-22 17:51:00,
2013-05-22 13:56:00,70.3,63.5,29.87,North,0,0.0,0.0,79,0.00,BKN,,0.11,473.0,WeatherDisplay:10.37,2013-05-22 17:56:00,
2013-05-22 14:01:00,71.2,64.0,29.86,North,0,0.0,0.0,78,0.00,BKN,,0.11,596.0,WeatherDisplay:10.37,2013-05-22 18:01:00,
2013-05-22 14:06:00,71.9,65.0,29.86,North,0,0.0,0.0,79,0.00,SCT,,0.11,596.0,WeatherDisplay:10.37,2013-05-22 18:06:00,
2013-05-22 14:11:00,71.9,64.7,29.86,North,0,0.0,0.0,78,0.00,SCT,,0.11,552.0,WeatherDisplay:10.37,2013-05-22 18:11:00,
2013-05-22 14:16:00,72.9,65.6,29.86,North,0,0.0,0.0,78,0.00,SCT,,0.11,1048.0,WeatherDisplay:10.37,2013-05-22 18:16:00,
2013-05-22 14:21:00,74.2,66.5,29.86,North,0,0.0,0.0,77,0.00,CLR,,0.11,986.0,WeatherDisplay:10.37,2013-05-22 18:21:00,
2013-05-22 14:26:00,73.6,65.9,29.86,North,0,0.0,0.0,77,0.00,SCT,,0.11,424.0,WeatherDisplay:10.37,2013-05-22 18:26:00,
2013-05-22 14:31:00,73.1,65.5,29.86,North,0,0.0,0.0,77,0.00,BKN,,0.11,336.0,WeatherDisplay:10.37,2013-05-22 18:31:00,
2013-05-22 14:36:00,72.6,65.0,29.86,North,0,0.0,0.0,77,0.00,BKN,,0.11,255.0,WeatherDisplay:10.37,2013-05-22 18:36:00,
2013-05-22 14:41:00,72.6,65.0,29.86,North,0,0.0,0.0,77,0.00,BKN,,0.11,299.0,WeatherDisplay:10.37,2013-05-22 18:41:00,
2013-05-22 14:46:00,72.6,65.0,29.86,North,0,0.0,0.0,77,0.00,BKN,,0.11,239.0,WeatherDisplay:10.37,2013-05-22 18:46:00,
2013-05-22 14:51:00,72.3,64.7,29.86,North,0,0.0,0.0,77,0.00,BKN,,0.11,229.0,WeatherDisplay:10.37,2013-05-22 18:51:00,
2013-05-22 14:56:00,72.3,64.7,29.86,North,0,0.0,0.0,77,0.00,BKN,,0.11,218.0,WeatherDisplay:10.37,2013-05-22 18:56:00,
2013-05-22 15:01:00,72.3,64.7,29.86,North,0,0.0,0.0,77,0.00,BKN,,0.11,297.0,WeatherDisplay:10.37,2013-05-22 19:01:00,
2013-05-22 15:06:00,72.1,64.9,29.85,North,0,0.0,0.0,78,0.00,BKN,,0.11,338.0,WeatherDisplay:10.37,2013-05-22 19:06:00,
2013-05-22 15:11:00,72.3,65.1,29.85,North,0,0.0,0.0,78,0.00,BKN,,0.11,311.0,WeatherDisplay:10.37,2013-05-22 19:11:00,
2013-05-22 15:16:00,72.8,65.5,29.85,North,0,0.0,0.0,78,0.00,SCT,,0.11,795.0,WeatherDisplay:10.37,2013-05-22 19:16:00,
2013-05-22 15:21:00,73.9,66.2,29.86,North,0,0.0,0.0,77,0.00,CLR,,0.11,773.0,WeatherDisplay:10.37,2013-05-22 19:21:00,
2013-05-22 15:26:00,74.5,66.8,29.86,North,0,0.0,0.0,77,0.00,CLR,,0.11,756.0,WeatherDisplay:10.37,2013-05-22 19:26:00,
2013-05-22 15:31:00,74.7,66.2,29.85,North,0,0.0,0.0,75,0.00,FEW,,0.11,624.0,WeatherDisplay:10.37,2013-05-22 19:31:00,
2013-05-22 15:36:00,74.2,66.1,29.85,North,0,0.0,0.0,76,0.00,BKN,,0.11,264.0,WeatherDisplay:10.37,2013-05-22 19:36:00,
2013-05-22 15:41:00,73.7,65.7,29.86,North,0,0.0,0.0,76,0.00,BKN,,0.11,315.0,WeatherDisplay:10.37,2013-05-22 19:41:00,
2013-05-22 15:46:00,73.7,66.0,29.86,North,0,0.0,0.0,77,0.00,BKN,,0.11,469.0,WeatherDisplay:10.37,2013-05-22 19:46:00,
2013-05-22 15:51:00,73.5,65.5,29.85,North,0,0.0,0.0,76,0.00,BKN,,0.11,200.0,WeatherDisplay:10.37,2013-05-22 19:51:00,
2013-05-22 15:56:00,73.3,65.7,29.86,North,0,0.0,0.0,77,0.00,BKN,,0.11,297.0,WeatherDisplay:10.37,2013-05-22 19:56:00,
2013-05-22 16:01:00,73.2,65.6,29.85,North,0,0.0,0.0,77,0.00,BKN,,0.11,274.0,WeatherDisplay:10.37,2013-05-22 20:01:00,
2013-05-22 16:06:00,73.3,65.7,29.85,North,0,0.0,0.0,77,0.00,BKN,,0.11,308.0,WeatherDisplay:10.37,2013-05-22 20:06:00,
2013-05-22 16:11:00,73.3,65.7,29.85,North,0,0.0,0.0,77,0.00,BKN,,0.11,183.0,WeatherDisplay:10.37,2013-05-22 20:11:00,
2013-05-22 16:53:00,72.9,65.3,29.84,North,0,0.0,0.0,77,0.00,BKN,,0.11,165.0,WeatherDisplay:10.37,2013-05-22 20:53:00,
2013-05-22 16:58:00,72.9,65.3,29.84,North,0,0.0,0.0,77,0.00,BKN,,0.11,125.0,WeatherDisplay:10.37,2013-05-22 20:58:00,
2013-05-22 17:03:00,72.9,65.3,29.83,North,0,0.0,0.0,77,0.00,BKN,,0.11,128.0,WeatherDisplay:10.37,2013-05-22 21:03:00,
2013-05-22 17:08:00,72.8,65.2,29.84,North,0,0.0,0.0,77,0.00,BKN,,0.11,95.0,WeatherDisplay:10.37,2013-05-22 21:08:00,
2013-05-22 17:13:00,72.6,64.6,29.84,North,0,0.0,0.0,76,0.00,BKN,,0.11,109.0,WeatherDisplay:10.37,2013-05-22 21:13:00,
2013-05-22 17:18:00,72.3,64.3,29.84,North,0,0.0,0.0,76,0.00,BKN,,0.11,102.0,WeatherDisplay:10.37,2013-05-22 21:18:00,
2013-05-22 17:23:00,71.9,63.5,29.83,North,0,0.0,0.0,75,0.00,BKN,,0.11,121.0,WeatherDisplay:10.37,2013-05-22 21:23:00,
2013-05-22 17:28:00,71.6,63.6,29.83,North,0,0.0,0.0,76,0.00,BKN,,0.11,137.0,WeatherDisplay:10.37,2013-05-22 21:28:00,
2013-05-22 17:33:00,71.2,62.9,29.83,North,0,0.0,0.0,75,0.00,BKN,,0.11,135.0,WeatherDisplay:10.37,2013-05-22 21:33:00,
2013-05-22 17:38:00,70.8,62.5,29.83,North,0,0.0,0.0,75,0.00,BKN,,0.11,134.0,WeatherDisplay:10.37,2013-05-22 21:38:00,
2013-05-22 17:43:00,70.4,62.5,29.83,North,0,0.0,0.0,76,0.00,BKN,,0.11,120.0,WeatherDisplay:10.37,2013-05-22 21:43:00,
2013-05-22 17:48:00,70.1,62.2,29.83,North,0,0.0,0.0,76,0.00,BKN,,0.11,114.0,WeatherDisplay:10.37,2013-05-22 21:48:00,
2013-05-22 17:53:00,69.9,62.0,29.83,North,0,0.0,0.0,76,0.00,BKN,,0.11,113.0,WeatherDisplay:10.37,2013-05-22 21:53:00,
2013-05-22 17:58:00,69.5,61.6,29.83,North,0,0.0,0.0,76,0.00,BKN,,0.11,109.0,WeatherDisplay:10.37,2013-05-22 21:58:00,
2013-05-22 18:03:00,69.3,61.4,29.83,North,0,0.0,0.0,76,0.00,BKN,,0.11,111.0,WeatherDisplay:10.37,2013-05-22 22:03:00,
2013-05-22 18:08:00,69.1,61.2,29.83,North,0,0.0,0.0,76,0.00,BKN,,0.11,111.0,WeatherDisplay:10.37,2013-05-22 22:08:00,
2013-05-22 18:13:00,68.9,61.0,29.83,North,0,0.0,0.0,76,0.00,BKN,,0.11,104.0,WeatherDisplay:10.37,2013-05-22 22:13:00,
2013-05-22 18:18:00,68.6,60.7,29.84,North,0,0.0,0.0,76,0.00,BKN,,0.11,88.0,WeatherDisplay:10.37,2013-05-22 22:18:00,
2013-05-22 18:23:00,68.4,60.5,29.84,North,0,0.0,0.0,76,0.00,BKN,,0.11,81.0,WeatherDisplay:10.37,2013-05-22 22:23:00,
2013-05-22 18:28:00,68.2,60.7,29.84,North,0,0.0,0.0,77,0.00,BKN,,0.11,76.0,WeatherDisplay:10.37,2013-05-22 22:28:00,
2013-05-22 18:33:00,68.1,60.6,29.84,North,0,0.0,0.0,77,0.00,BKN,,0.11,54.0,WeatherDisplay:10.37,2013-05-22 22:33:00,
2013-05-22 18:38:00,67.8,60.3,29.85,North,0,0.0,0.0,77,0.00,BKN,,0.11,47.0,WeatherDisplay:10.37,2013-05-22 22:38:00,
2013-05-22 18:43:00,67.5,60.0,29.85,North,0,0.0,0.0,77,0.00,BKN,,0.11,42.0,WeatherDisplay:10.37,2013-05-22 22:43:00,
2013-05-22 18:48:00,67.3,59.8,29.85,North,0,0.0,0.0,77,0.00,BKN,,0.11,42.0,WeatherDisplay:10.37,2013-05-22 22:48:00,
2013-05-22 18:53:00,66.9,59.1,29.86,North,0,0.0,0.0,76,0.00,BKN,,0.11,47.0,WeatherDisplay:10.37,2013-05-22 22:53:00,
2013-05-22 18:58:00,66.5,58.7,29.86,North,0,0.0,0.0,76,0.00,BKN,,0.11,39.0,WeatherDisplay:10.37,2013-05-22 22:58:00,
2013-05-22 19:03:00,66.2,58.4,29.86,North,0,0.0,0.0,76,0.00,BKN,,0.11,37.0,WeatherDisplay:10.37,2013-05-22 23:03:00,
2013-05-22 19:08:00,65.8,58.0,29.87,North,0,0.0,0.0,76,0.00,BKN,,0.11,30.0,WeatherDisplay:10.37,2013-05-22 23:08:00,
2013-05-22 19:13:00,65.3,57.9,29.87,North,0,0.0,0.0,77,0.00,BKN,,0.11,28.0,WeatherDisplay:10.37,2013-05-22 23:13:00,
2013-05-22 19:18:00,64.9,57.5,29.87,North,0,0.0,0.0,77,0.00,BKN,,0.11,26.0,WeatherDisplay:10.37,2013-05-22 23:18:00,
2013-05-22 19:23:00,64.6,57.2,29.87,North,0,0.0,0.0,77,0.00,BKN,,0.11,26.0,WeatherDisplay:10.37,2013-05-22 23:23:00,
2013-05-22 19:28:00,64.2,56.8,29.87,North,0,0.0,0.0,77,0.00,BKN,,0.11,26.0,WeatherDisplay:10.37,2013-05-22 23:28:00,
2013-05-22 19:33:00,63.8,56.4,29.87,North,0,0.0,0.0,77,0.00,BKN,,0.11,25.0,WeatherDisplay:10.37,2013-05-22 23:33:00,
2013-05-22 19:38:00,63.4,56.1,29.88,North,0,0.0,0.0,77,0.00,BKN,,0.11,21.0,WeatherDisplay:10.37,2013-05-22 23:38:00,
2013-05-22 19:43:00,63.1,55.8,29.88,North,0,0.0,0.0,77,0.00,BKN,,0.11,18.0,WeatherDisplay:10.37,2013-05-22 23:43:00,
2013-05-22 19:48:00,62.8,55.8,29.88,North,0,0.0,0.0,78,0.00,BKN,,0.11,14.0,WeatherDisplay:10.37,2013-05-22 23:48:00,
2013-05-22 19:53:00,62.3,55.0,29.87,North,0,0.0,0.0,77,0.00,BKN,,0.11,9.0,WeatherDisplay:10.37,2013-05-22 23:53:00,
2013-05-22 19:58:00,62.0,55.1,29.87,North,0,0.0,0.0,78,0.00,BKN,,0.11,5.0,WeatherDisplay:10.37,2013-05-22 23:58:00,
2013-05-22 20:03:00,61.7,54.8,29.88,North,0,0.0,0.0,78,0.00,OVC,,0.11,0.0,WeatherDisplay:10.37,2013-05-23 00:03:00,
2013-05-22 20:08:00,61.4,54.5,29.88,North,0,0.0,0.0,78,0.00,OVC,,0.11,0.0,WeatherDisplay:10.37,2013-05-23 00:08:00,
2013-05-22 20:13:00,61.0,54.1,29.88,North,0,0.0,0.0,78,0.00,OVC,,0.11,0.0,WeatherDisplay:10.37,2013-05-23 00:13:00,
2013-05-22 20:18:00,60.7,53.8,29.88,North,0,0.0,0.0,78,0.00,OVC,,0.11,0.0,WeatherDisplay:10.37,2013-05-23 00:18:00,
2013-05-22 20:23:00,60.5,53.6,29.88,North,0,0.0,0.0,78,0.00,OVC,,0.11,0.0,WeatherDisplay:10.37,2013-05-23 00:23:00,
2013-05-22 20:28:00,60.3,53.4,29.88,North,0,0.0,0.0,78,0.00,OVC,,0.11,0.0,WeatherDisplay:10.37,2013-05-23 00:28:00,
2013-05-22 20:33:00,60.1,53.6,29.89,North,0,0.0,0.0,79,0.00,OVC,,0.11,0.0,WeatherDisplay:10.37,2013-05-23 00:33:00,
2013-05-22 20:38:00,59.9,53.4,29.89,North,0,0.0,0.0,79,0.00,CLR,,0.11,0.0,WeatherDisplay:10.37,2013-05-23 00:38:00,
2013-05-22 20:43:00,59.7,53.2,29.89,North,0,0.0,0.0,79,0.00,CLR,,0.11,0.0,WeatherDisplay:10.37,2013-05-23 00:43:00,
2013-05-22 20:48:00,59.5,53.0,29.89,North,0,0.0,0.0,79,0.00,CLR,,0.11,0.0,WeatherDisplay:10.37,2013-05-23 00:48:00,
2013-05-22 20:53:00,59.3,52.8,29.88,North,0,0.0,0.0,79,0.00,CLR,,0.11,0.0,WeatherDisplay:10.37,2013-05-23 00:53:00,
2013-05-22 20:58:00,59.1,52.9,29.89,North,0,0.0,0.0,80,0.00,CLR,,0.11,0.0,WeatherDisplay:10.37,2013-05-23 00:58:00,
2013-05-22 21:03:00,59.0,52.8,29.89,North,0,0.0,0.0,80,0.00,CLR,,0.11,0.0,WeatherDisplay:10.37,2013-05-23 01:03:00,
2013-05-22 21:08:00,58.8,52.6,29.89,North,0,0.0,0.0,80,0.00,CLR,,0.11,0.0,WeatherDisplay:10.37,2013-05-23 01:08:00,
2013-05-22 21:13:00,58.7,52.5,29.89,North,0,0.0,0.0,80,0.00,CLR,,0.11,0.0,WeatherDisplay:10.37,2013-05-23 01:13:00,
2013-05-22 21:18:00,58.6,52.4,29.89,North,0,0.0,0.0,80,0.00,CLR,,0.11,0.0,WeatherDisplay:10.37,2013-05-23 01:18:00,
2013-05-22 21:23:00,58.5,52.4,29.90,North,0,0.0,0.0,80,0.00,CLR,,0.11,0.0,WeatherDisplay:10.37,2013-05-23 01:23:00,
2013-05-22 21:28:00,58.3,52.2,29.90,North,0,0.0,0.0,80,0.00,CLR,,0.11,0.0,WeatherDisplay:10.37,2013-05-23 01:28:00,
2013-05-22 21:33:00,58.2,52.1,29.90,North,0,0.0,0.0,80,0.00,CLR,,0.11,0.0,WeatherDisplay:10.37,2013-05-23 01:33:00,
2013-05-22 21:38:00,58.1,52.0,29.90,North,0,0.0,0.0,80,0.00,CLR,,0.11,0.0,WeatherDisplay:10.37,2013-05-23 01:38:00,
2013-05-22 21:43:00,58.0,51.9,29.90,North,0,0.0,0.0,80,0.00,CLR,,0.11,0.0,WeatherDisplay:10.37,2013-05-23 01:43:00,
2013-05-22 21:48:00,57.9,51.8,29.90,North,0,0.0,0.0,80,0.00,CLR,,0.11,0.0,WeatherDisplay:10.37,2013-05-23 01:48:00,
2013-05-22 21:53:00,57.7,51.6,29.90,North,0,0.0,0.0,80,0.00,CLR,,0.11,0.0,WeatherDisplay:10.37,2013-05-23 01:53:00,
2013-05-22 21:58:00,57.6,51.5,29.90,North,0,0.0,0.0,80,0.00,CLR,,0.11,0.0,WeatherDisplay:10.37,2013-05-23 01:58:00,
2013-05-22 22:03:00,57.6,51.5,29.91,North,0,0.0,0.0,80,0.00,CLR,,0.11,0.0,WeatherDisplay:10.37,2013-05-23 02:03:00,
2013-05-22 22:08:00,57.5,51.7,29.90,North,0,0.0,0.0,81,0.00,CLR,,0.11,0.0,WeatherDisplay:10.37,2013-05-23 02:08:00,
2013-05-22 22:13:00,57.4,51.6,29.90,North,0,0.0,0.0,81,0.00,CLR,,0.11,0.0,WeatherDisplay:10.37,2013-05-23 02:13:00,
2013-05-22 22:18:00,57.3,51.5,29.91,North,0,0.0,0.0,81,0.00,CLR,,0.11,0.0,WeatherDisplay:10.37,2013-05-23 02:18:00,
2013-05-22 22:23:00,57.2,51.4,29.91,North,0,0.0,0.0,81,0.00,CLR,,0.11,0.0,WeatherDisplay:10.37,2013-05-23 02:23:00,
2013-05-22 22:28:00,57.1,51.3,29.91,North,0,0.0,0.0,81,0.00,CLR,,0.11,0.0,WeatherDisplay:10.37,2013-05-23 02:28:00,
2013-05-22 22:33:00,57.0,51.2,29.91,North,0,0.0,0.0,81,0.00,CLR,,0.11,0.0,WeatherDisplay:10.37,2013-05-23 02:33:00,
2013-05-22 22:38:00,56.9,51.1,29.91,North,0,0.0,0.0,81,0.00,CLR,,0.11,0.0,WeatherDisplay:10.37,2013-05-23 02:38:00,
2013-05-22 22:43:00,56.8,51.0,29.90,North,0,0.0,0.0,81,0.00,CLR,,0.11,0.0,WeatherDisplay:10.37,2013-05-23 02:43:00,
2013-05-22 22:48:00,56.7,50.9,29.90,North,0,0.0,0.0,81,0.00,CLR,,0.11,0.0,WeatherDisplay:10.37,2013-05-23 02:48:00,
2013-05-22 22:53:00,56.6,50.8,29.90,North,0,0.0,0.0,81,0.00,CLR,,0.11,0.0,WeatherDisplay:10.37,2013-05-23 02:53:00,
2013-05-22 22:58:00,56.5,50.7,29.90,North,0,0.0,0.0,81,0.00,CLR,,0.11,0.0,WeatherDisplay:10.37,2013-05-23 02:58:00,
2013-05-22 23:03:00,56.4,51.0,29.90,North,0,0.0,0.0,82,0.00,CLR,,0.11,0.0,WeatherDisplay:10.37,2013-05-23 03:03:00,
2013-05-22 23:08:00,56.4,51.0,29.90,North,0,0.0,0.0,82,0.00,CLR,,0.11,0.0,WeatherDisplay:10.37,2013-05-23 03:08:00,
2013-05-22 23:13:00,56.2,50.8,29.90,North,0,0.0,0.0,82,0.00,CLR,,0.11,0.0,WeatherDisplay:10.37,2013-05-23 03:13:00,
2013-05-22 23:18:00,56.2,50.8,29.90,North,0,0.0,0.0,82,0.00,CLR,,0.11,0.0,WeatherDisplay:10.37,2013-05-23 03:18:00,
2013-05-22 23:23:00,56.1,50.7,29.90,North,0,0.0,0.0,82,0.00,CLR,,0.11,0.0,WeatherDisplay:10.37,2013-05-23 03:23:00,
2013-05-22 23:28:00,56.0,50.6,29.90,North,0,0.0,0.0,82,0.00,CLR,,0.11,0.0,WeatherDisplay:10.37,2013-05-23 03:28:00,
2013-05-22 23:33:00,55.9,50.5,29.89,North,0,0.0,0.0,82,0.00,CLR,,0.11,0.0,WeatherDisplay:10.37,2013-05-23 03:33:00,
2013-05-22 23:38:00,55.9,50.5,29.89,North,0,0.0,0.0,82,0.00,CLR,,0.11,0.0,WeatherDisplay:10.37,2013-05-23 03:38:00,
2013-05-22 23:43:00,55.8,50.4,29.89,North,0,0.0,0.0,82,0.00,CLR,,0.11,0.0,WeatherDisplay:10.37,2013-05-23 03:43:00,
2013-05-22 23:48:00,55.7,50.3,29.88,North,0,0.0,0.0,82,0.00,CLR,,0.11,0.0,WeatherDisplay:10.37,2013-05-23 03:48:00,
2013-05-22 23:53:00,55.7,50.3,29.88,North,0,0.0,0.0,82,0.00,CLR,,0.11,0.0,WeatherDisplay:10.37,2013-05-23 03:53:00,
2013-05-22 23:58:00,55.6,50.2,29.88,North,0,0.0,0.0,82,0.00,CLR,,0.11,0.0,WeatherDisplay:10.37,2013-05-23 03:58:00,